ONEWEB-0383 (49309 NORAD) Tracking and Keplerian Element Data

This shows tracking and keplerian element data for the satellite.

Feedback or suggestion? Click here.




ElementValue
Catalog49309
NameONEWEB-0383
Epoch Orbit354
Epoch Day339.91667824
Epoch Year2021
RAAN275.0387
Inclination87.202
Eccentricity0.0013208
Argument of Perigee81.0924
Mean Anonmoly315.1739
Mean Motion14.88427185
Decay Rate-0.00050583
L11 49309U 21090AG 21339.91667824 -.00050583 00000+0 -54967-2 0 9993
L22 49309 87.2020 275.0387 0013208 81.0924 315.1739 14.88427185 3545

Live tracking and technical data element details for ONEWEB-0383 (NORAD 49309). ONEWEB-0383 can be tracked NOW for your location showing map with azimuth and elevation plus other details from your city location.

Track the satellite on the map from your city or location and see movement details for azimuth, elevation, latitude, longitude, range, height, and movement on the map or in text.







IsCatalogInMostPopularTable: catalog: 49309, numindb: 7
Update: records affected: 1



GetName: 49309 ONEWEB-0383

Hit Count: updated at: Mon, 06 Dec 2021 15:03:44 GMT